Flint, MI (48501)

1:51 PM EDT on June 23, 2017 (GMT -0400)
KC8EEL-FLINT | | Change Station

Elev 756 ft 42.99 °N, 83.69 °W | Updated 55 seconds ago

Overcast
Overcast
73.4 °F
Feels Like 74 °F
N
6.8
Wind Variable Wind from West

Today
High -- | Low -- °F
--% Chance of Precip.
Yesterday
High -- | Low -- °F
Precip. -- in
Pressure 29.61 in
Visibility 10.0 miles
Clouds Few 1500 ft
Few 2100 ft
Overcast 3100 ft
Heat Index 74 °F
Dew Point 65 °F
Humidity 76%
Rainfall 0.87 in
Snow Depth Not available.
5:56 AM 9:17 PM
Waning Crescent, 0% visible
SPECI KFNT 231733Z 29013KT 10SM FEW015 FEW021 OVC031 22/19 A2961 RMK AO2 T02220189 $
Pressure 29.61 in
Visibility 10.0 miles
Clouds Few 1500 ft
Few 2100 ft
Overcast 3100 ft
Heat Index 74 °F
Dew Point 65 °F
Humidity 76%
Rainfall 0.87 in
Snow Depth Not available.
5:56 AM 9:17 PM
Waning Crescent, 0% visible
SPECI KFNT 231733Z 29013KT 10SM FEW015 FEW021 OVC031 22/19 A2961 RMK AO2 T02220189 $

Get Severe Weather Alerts

Thanks for signing up!

Be on the lookout for a verification email in your inbox.

You'll start receiving the daily forecast at 6 AM.

×

10-Day Weather Forecast

Almanac

Astronomy

Jun. 23, 2017 Rise Set
Actual Time
Civil Twilight
Nautical Twilight
Astronomical Twilight
Moon
Length of Visible Light
Length of Day
Tomorrow will be .
, % of the Moon is Illuminated

Today's Extremes

State Highs State Lows

Community

WunderPhotos

Category 6

Welcome to Category 6. This is the collective home for Weather Underground's featured writeups by Dr. Jeff Masters (right), Bob Henson (left), Chris Burt, and other regular contributors.

Nearby

Air Quality

  Air Quality AQ Index Pollutant
Not available.

Snow Depth

Station Depth Elevation

Earthquake Activity

City Distance Mag. Time & Date
Minimum magnitude displayed is 2.5.

Coastal Water Temperatures

Place Temperature

Stations

Nearby Weather Stations

Station Location Temp. Windchill Dew Point Humidity Wind Precip. Elev Updated Type
                   

Watches & Warnings

There are currently no watches in effect.